• In Portugal
  • List of Countries
  • For 7 days
  • Water Temperature
  • Satellite Maps
  • Weather Map
  • Weather Widgets
  • user-avatar
    Login

    Hourly Weather Sharan

    Today, 22 November, Wednesday

    Time Temperature Precipitation Wind Pressure Humidity
    00:00 +1°C° 0 mm 0 mps 584 mmHg 25%
    01:00 +1°C° 0 mm 0 mps 583 mmHg 25%
    02:00 +1°C° 0 mm 0 mps 583 mmHg 25%
    03:00 +1°C° 0 mm 1 mps 583 mmHg 25%
    04:00 +1°C° 0 mm 1 mps 583 mmHg 25%
    05:00 +1°C° 0 mm 1 mps 583 mmHg 25%
    06:00 +2°C° 0 mm 1 mps 584 mmHg 24%
    07:00 +2°C° 0 mm 1 mps 584 mmHg 24%
    08:00 +2°C° 0 mm 1 mps 584 mmHg 24%
    09:00 +4°C° 0 mm 1 mps 585 mmHg 21%
    10:00 +6°C° 0 mm 1 mps 586 mmHg 18%
    11:00 +8°C° 0 mm 1 mps 587 mmHg 15%
    12:00 +8°C° 0 mm 0 mps 587 mmHg 14%
    13:00 +9°C° 0 mm 0 mps 587 mmHg 13%
    14:00 +10°C° 0 mm 0 mps 587 mmHg 12%
    15:00 +9°C° 0 mm 1 mps 586 mmHg 15%
    16:00 +8°C° 0 mm 1 mps 585 mmHg 18%
    17:00 +7°C° 0 mm 1 mps 585 mmHg 21%
    18:00 +7°C° 0 mm 1 mps 585 mmHg 22%
    19:00 +5°C° 0 mm 0 mps 585 mmHg 23%
    20:00 +4°C° 0 mm 0 mps 585 mmHg 24%
    21:00 +4°C° 0 mm 0 mps 585 mmHg 24%
    22:00 +4°C° 0 mm 0 mps 585 mmHg 24%
    23:00 +5°C° 0 mm 0 mps 585 mmHg 24%

    Tomorrow, 23 November, Thursday

    Time Temperature Precipitation Wind Pressure Humidity
    00:00 +4°C° 0 mm 0 mps 584 mmHg 24%
    01:00 +4°C° 0 mm 0 mps 584 mmHg 24%
    02:00 +3°C° 0 mm 0 mps 584 mmHg 25%
    03:00 +3°C° 0 mm 0 mps 584 mmHg 25%
    04:00 +3°C° 0 mm 0 mps 583 mmHg 25%
    05:00 +3°C° 0 mm 0 mps 583 mmHg 25%
    06:00 +3°C° 0 mm 0 mps 583 mmHg 25%
    07:00 +3°C° 0 mm 0 mps 584 mmHg 25%
    08:00 +3°C° 0 mm 0 mps 584 mmHg 25%
    09:00 +6°C° 0 mm 1 mps 585 mmHg 22%
    10:00 +8°C° 0 mm 1 mps 586 mmHg 19%
    11:00 +9°C° 0 mm 1 mps 587 mmHg 16%
    12:00 +10°C° 0 mm 1 mps 586 mmHg 17%
    13:00 +10°C° 0 mm 2 mps 586 mmHg 19%
    14:00 +10°C° 0 mm 2 mps 586 mmHg 20%
    15:00 +10°C° 0 mm 2 mps 586 mmHg 22%
    16:00 +10°C° 0 mm 1 mps 586 mmHg 25%
    17:00 +10°C° 0 mm 1 mps 585 mmHg 27%
    18:00 +9°C° 0 mm 1 mps 585 mmHg 28%
    19:00 +8°C° 0 mm 1 mps 585 mmHg 29%
    20:00 +7°C° 0 mm 1 mps 585 mmHg 31%
    21:00 +6°C° 0 mm 1 mps 585 mmHg 32%
    22:00 +6°C° 0 mm 1 mps 585 mmHg 33%
    23:00 +6°C° 0 mm 1 mps 585 mmHg 34%

    Day after tomorrow, 24 November, Friday

    Time Temperature Precipitation Wind Pressure Humidity
    00:00 +5°C° 0 mm 1 mps 585 mmHg 35%
    01:00 +5°C° 0 mm 1 mps 584 mmHg 36%
    02:00 +3°C° 0 mm 0 mps 584 mmHg 36%
    03:00 +3°C° 0 mm 0 mps 584 mmHg 37%
    04:00 +3°C° 0 mm 0 mps 584 mmHg 38%
    05:00 +3°C° 0 mm 0 mps 583 mmHg 38%
    06:00 +3°C° 0 mm 0 mps 584 mmHg 38%
    07:00 +3°C° 0 mm 0 mps 584 mmHg 37%
    08:00 +4°C° 0 mm 0 mps 585 mmHg 36%
    09:00 +7°C° 0 mm 1 mps 586 mmHg 31%
    10:00 +8°C° 0 mm 1 mps 587 mmHg 26%
    11:00 +10°C° 0 mm 1 mps 588 mmHg 21%
    12:00 +11°C° 0 mm 1 mps 588 mmHg 19%
    13:00 +12°C° 0 mm 2 mps 588 mmHg 18%
    14:00 +12°C° 0 mm 2 mps 587 mmHg 17%
    15:00 +12°C° 0 mm 2 mps 587 mmHg 19%
    16:00 +10°C° 0 mm 2 mps 587 mmHg 21%
    17:00 +11°C° 0 mm 1 mps 587 mmHg 22%
    18:00 +10°C° 0 mm 1 mps 587 mmHg 24%
    19:00 +9°C° 0 mm 1 mps 587 mmHg 25%
    20:00 +8°C° 0 mm 1 mps 587 mmHg 26%
    21:00 +8°C° 0 mm 1 mps 586 mmHg 27%
    22:00 +7°C° 0 mm 1 mps 586 mmHg 28%
    23:00 +5°C° 0 mm 0 mps 586 mmHg 30%

    25 November, Saturday

    Time Temperature Precipitation Wind Pressure Humidity
    00:00 +5°C° 0 mm 0 mps 586 mmHg 30%
    01:00 +5°C° 0 mm 0 mps 585 mmHg 31%
    02:00 +4°C° 0 mm 0 mps 585 mmHg 31%
    03:00 +5°C° 0 mm 1 mps 585 mmHg 32%
    04:00 +5°C° 0 mm 1 mps 584 mmHg 33%
    05:00 +4°C° 0 mm 1 mps 584 mmHg 34%
    06:00 +5°C° 0 mm 1 mps 585 mmHg 34%
    07:00 +5°C° 0 mm 1 mps 585 mmHg 34%
    08:00 +6°C° 0 mm 1 mps 586 mmHg 34%
    09:00 +7°C° 0 mm 1 mps 586 mmHg 31%
    10:00 +8°C° 0 mm 2 mps 587 mmHg 29%
    11:00 +10°C° 0 mm 2 mps 588 mmHg 26%
    12:00 +9°C° 0.3 mm 3 mps 587 mmHg 34%
    13:00 +9°C° 0.3 mm 3 mps 587 mmHg 41%
    14:00 +7°C° 0.3 mm 4 mps 586 mmHg 49%
    15:00 +8°C° 0.1 mm 3 mps 586 mmHg 52%
    16:00 +7°C° 0.1 mm 2 mps 586 mmHg 56%
    17:00 +8°C° 0.1 mm 1 mps 586 mmHg 59%
    18:00 +7°C° 0 mm 1 mps 586 mmHg 62%
    19:00 +7°C° 0 mm 1 mps 586 mmHg 65%
    20:00 +6°C° 0 mm 1 mps 586 mmHg 69%
    21:00 +5°C° 0 mm 1 mps 586 mmHg 71%
    22:00 +5°C° 0 mm 1 mps 586 mmHg 73%
    23:00 +5°C° 0 mm 1 mps 586 mmHg 76%

    26 November, Sunday

    Time Temperature Precipitation Wind Pressure Humidity
    00:00 +4°C° 0 mm 1 mps 586 mmHg 78%
    01:00 +4°C° 0 mm 1 mps 586 mmHg 80%
    02:00 +3°C° 0 mm 1 mps 585 mmHg 82%
    03:00 +3°C° 0 mm 1 mps 585 mmHg 83%
    04:00 +3°C° 0 mm 1 mps 585 mmHg 84%
    05:00 +3°C° 0 mm 1 mps 585 mmHg 85%
    06:00 +3°C° 0 mm 1 mps 586 mmHg 83%
    07:00 +3°C° 0 mm 1 mps 586 mmHg 82%
    08:00 +3°C° 0 mm 1 mps 587 mmHg 80%
    09:00 +5°C° 0 mm 1 mps 588 mmHg 73%
    10:00 +6°C° 0 mm 1 mps 588 mmHg 66%
    11:00 +8°C° 0 mm 1 mps 589 mmHg 58%
    12:00 +8°C° 0 mm 1 mps 589 mmHg 54%
    13:00 +9°C° 0 mm 1 mps 589 mmHg 49%
    14:00 +9°C° 0 mm 2 mps 588 mmHg 44%
    15:00 +9°C° 0 mm 1 mps 588 mmHg 46%
    16:00 +9°C° 0 mm 1 mps 588 mmHg 48%
    17:00 +8°C° 0 mm 1 mps 588 mmHg 49%
    18:00 +7°C° 0 mm 1 mps 587 mmHg 53%
    19:00 +7°C° 0 mm 1 mps 587 mmHg 57%
    20:00 +6°C° 0 mm 1 mps 587 mmHg 60%
    21:00 +5°C° 0 mm 1 mps 587 mmHg 62%
    22:00 +5°C° 0 mm 1 mps 587 mmHg 63%
    23:00 +4°C° 0 mm 1 mps 586 mmHg 64%

    27 November, Monday

    Time Temperature Precipitation Wind Pressure Humidity
    00:00 +4°C° 0 mm 1 mps 586 mmHg 66%
    01:00 +4°C° 0 mm 1 mps 586 mmHg 67%
    02:00 +3°C° 0 mm 1 mps 585 mmHg 69%
    03:00 +3°C° 0 mm 1 mps 585 mmHg 70%
    04:00 +3°C° 0 mm 1 mps 585 mmHg 70%
    05:00 +3°C° 0 mm 1 mps 584 mmHg 71%
    06:00 +3°C° 0 mm 1 mps 585 mmHg 69%
    07:00 +3°C° 0 mm 1 mps 585 mmHg 67%
    08:00 +3°C° 0 mm 1 mps 585 mmHg 65%
    09:00 +5°C° 0 mm 1 mps 586 mmHg 56%
    10:00 +6°C° 0 mm 1 mps 587 mmHg 48%
    11:00 +8°C° 0 mm 1 mps 587 mmHg 39%
    12:00 +8°C° 0 mm 2 mps 587 mmHg 35%
    13:00 +9°C° 0 mm 2 mps 586 mmHg 31%
    14:00 +9°C° 0 mm 2 mps 586 mmHg 27%
    15:00 +9°C° 0 mm 2 mps 586 mmHg 28%
    16:00 +8°C° 0 mm 2 mps 586 mmHg 30%
    17:00 +8°C° 0 mm 2 mps 585 mmHg 31%
    18:00 +7°C° 0 mm 2 mps 585 mmHg 33%
    19:00 +6°C° 0 mm 2 mps 585 mmHg 34%
    20:00 +5°C° 0 mm 2 mps 585 mmHg 36%
    21:00 +5°C° 0 mm 2 mps 585 mmHg 36%
    22:00 +4°C° 0 mm 2 mps 585 mmHg 37%
    23:00 +4°C° 0 mm 2 mps 584 mmHg 37%
    Show more